Weather in Mlini

Croatia     42°37′31″N   18°11′59″E
temp.,
°C
wind,
m/s
gust,
m/s
humid.,
%
clouds,
%
prec.,
mm/h
press.,
hPa
HPBL,
m
11 may, tue
tue1123:00+14ne22740 0.0 101715
02:00+13ne22760 0.0 101714
05:00+12ne22754 0.0 101613
08:00+17ene116286 0.0 1016156
11:00+21ssw225255 0.0 1015632
14:00+21ssw22565 0.0 1014681
17:00+20ssw22571 0.0 1012435
20:00+15ne11780 0.0 101211
12 may, wed
wed1223:00+13ne11795 0.0 101211
02:00+14ne217568 0.1 101124
05:00+13ese1172100 0.1 100926
08:00+14e237897 0.1 1009114
11:00+17sse467324 0.8 1009828
14:00+17ssw56731 3.0 1009940
17:00+16ssw44736 0.4 1009786
20:00+12ese11850 0.7 100911
13 may, thu
thu1323:00+10ese22820 0.0 101012
02:00+10ene228691 0.1 100922
05:00+11e228093 0.0 100854
08:00+14s2472100 0.1 1008530
11:00+16s776015 0.1 10081428
14:00+16s676839 0.4 10081149
17:00+14s677565 1.1 1008988
20:00+11ese2389100 2.0 100948
14 may, fri
fri1423:00+9ene33917 0.7 101048
02:00+9ene239212 1.5 101065
05:00+8ene329240 0.1 101043
08:00+13ese258087 0.2 1011610
11:00+14s688067 1.8 1013969
14:00+16ssw68582 2.8 10131411
17:00+16s445975 0.0 10141014
20:00+11e118199 0.0 101420
15 may, sat
sat1523:00+9ne3280100 0.0 101526
02:00+9ne3281100 0.0 101443
05:00+9ene3385100 0.0 101262
08:00+12ene1384100 0.3 1011183
11:00+12ene2596100 12.6 1008336
14:00+10sse61395100 36.1 1008911
17:00+10ne2396100 9.1 1008205
20:00+9ne2292100 10.3 100763